Find Ekspress AM-5

NORAD ID: 39487 Int'l Des: 2013-077 Owner: KS Country: RU operational
HEOCIRCULARGSOGEO

Live-Position

3D-Globus wird geladen...

Über Ekspress AM-5

Beschreibung wird geladen...

Nächste Überflüge

Passes for default location (London). Set your location on the main map for personalized predictions.

Höhenverlauf

Loading altitude history...

Zweizeiliger Elementsatz

1 39487U 13077A 26106.25431664 -.00000273 00000-0 00000-0 0 9998
2 39487 0.0162 243.7956 0001346 83.1456 109.0596 1.00272385 45736
Epoch: 16. Apr. 2026 • Age: 10 hours

Aktueller Status

Höhe 35787.4 km
Geschwindigkeit 3.07 km/s
Subsatellitenpunkt -0.01°S, 140.02°E
Startdatum 26. Dez. 2013
Alter 12.3 years
Typ other

Technische Details

Klassifizierung Payload
Masse 3200.00 kg
Trockenmasse 2500.00 kg
Gesamtmasse 3200.00 kg
Länge 6.00 m
Durchmesser 2.00 m
Spannweite 27.00 m
Form Cyl+2 pan
Hersteller RESH
Bus-Typ Ekspress-2000
Phasenstatus In Orbit
Besitzer/Staat KS/RU

Most Searched